Satellite-Ground Cal/Val Site Overpasses Predictions

Prediction of Satellite NPP Overpassing Cal/Val Site: Antarctic Dome C

Ground Cal/Val Site Location: Latitude: -75.10, Longitude: 123.35; Satellite-Ground Site NADIR distance within 100 km.

Table of predicted overpasses for the next 14.0 days since TLE Epoch: 12/18/2021
Interval Starting Time Ending Time Minimum Distance Time Minimum Distance (km)
1 12/18/2021 07:26:22 12/18/2021 07:26:50 12/18/2021 07:26:36 32.04
2 12/20/2021 15:08:48 12/20/2021 15:08:53 12/20/2021 15:08:51 98.05
3 12/21/2021 14:49:44 12/21/2021 14:50:13 12/21/2021 14:49:59 13.51
4 12/23/2021 07:32:32 12/23/2021 07:33:01 12/23/2021 07:32:46 4.59
5 12/26/2021 14:55:55 12/26/2021 14:56:24 12/26/2021 14:56:10 22.72
6 12/27/2021 14:37:11 12/27/2021 14:37:26 12/27/2021 14:37:19 84.64
7 12/28/2021 07:38:43 12/28/2021 07:39:10 12/28/2021 07:38:57 39.77
8 12/29/2021 07:19:56 12/29/2021 07:20:17 12/29/2021 07:20:06 70.24
